World > North America > United States > New York
Hourly regional weather for Onchiota, New YorkOnchiota, New York Regional Hourly Weather

Onchiota, New York Regional Weather

regional weather onchiota, nyHOURLY REGIONAL WEATHER FOR ONCHIOTA, NY
Lat: 44.49N, Lon: 74.12W 
Web Search

Our weather pages are very print friendly and they make great conversation starters.

Feedback


°F Click to change Onchiota hourly weather to Imperial units.Click to change Onchiota hourly weather to Metric units. °C
Onchiota Weather Map
UTC Time: 8/2/2021, 21:14
Your Time:

Onchiota, NY Regional Weather

Expires:202108022200;;877336
ASUS41 KBTV 022110
RWRBTV
VERMONT REGIONAL WEATHER ROUNDUP
NATIONAL WEATHER SERVICE BURLINGTON VT
500 PM EDT MON AUG 02 2021

NOTE: "FAIR" INDICATES FEW OR NO CLOUDS BELOW 12,000 FEET WITH NO 
SIGNIFICANT WEATHER AND/OR OBSTRUCTIONS TO VISIBILITY.

* THESE REPORTS ARE NOT UNDER NWS QUALITY CONTROL AND/OR DO NOT
  REPORT WEATHER SUCH AS PRECIPITATION AND FOG.


NYZ007-026>031-035-052-083-087-022200-
_____NORTHERN NEW YORK_
  
CITY           SKY/WX    TMP DP  RH WIND       PRES   REMARKS
PLATTSBURGH    MOSUNNY   73  49  42 NW9       29.96R                  
SARANAC LAKE   PTSUNNY   66  49  54 VRB7      30.01R                  
MASSENA        SUNNY     73  47  39 W10G18    29.99S                  
OGDENSBURG*    FAIR      73  50  43 W8        29.97F                  
POTSDAM*       SUNNY     72  48  43 NW8       30.00S                  
WATERTOWN      SUNNY     72  53  51 W9        30.02S                  
FT DRUM        SUNNY     72  47  40 NW10G17   30.02S                  
ALBANY         MOSUNNY   74  49  41 W15       29.97R                  
GLENS FALLS    SUNNY     77  49  37 N13       29.95R                  

$$

SKY/WX - Weather  TMP - Temperature  DP - Dew Point  RH - Relative Humidity
WIND - Wind Direction/Speed PRES - Barometric Pressure VSB - Visibility
WCI - Wind Chill Index E13G22 Wind - East Wind 13 mph/Gusts of 22 mph